Flag for Luxembourg Weather past 2 weeks in Differdange, Luxembourg

Now
54 °F

Clear.


Feels Like: 53 °F
Forecast: 46 / 63 °F
Wind: 3 mph from Northwest

Location: Luxembourg Airport

Current Time: Jul 30, 2015 at 1:06:14 AM

Latest Report: Jul 30, 2015 at 12:20 AM


Visibility: 10 mi

Pressure: 29.98 "Hg

Humidity: 67%

Dew point: 43 °F

Location of DifferdangeLocation

Historic Weather in Differdange — Graph

°F

Differdange temperature yesterday

Maximum temperature yesterday: 66 °F (at 2:50 PM)
Minimum temperature yesterday: 52 °F (at 7:20 AM)
Average temperature yesterday: 58 °F

Past Weeks' High & Low Weather Summary

 TemperatureHumidityPressure
High91 °F (Jul 17, 3:50 PM)100% (Jul 15, 4:50 AM)30.15 "Hg (Jul 15, 4:50 AM)
Low48 °F (Jul 26, 1:50 AM)26% (Jul 16, 3:50 PM)29.62 "Hg (Jul 27, 4:20 AM)
Average68 °F68%29.94 "Hg
* Reported Jul 14 11:20 PM — Jul 29 11:20 PM, Differdange, Weather by CustomWeather, © 2015

Note: Actual official high and low records may vary slightly from our data, if they occured in-between our weather recording intervals... More about our weather records

Advertising

Differdange weather history for previous 24 hours

 ConditionsComfort  
Time TempWeatherWind HumidityBarometerVisibility
11:20 PM
Wed, Jul 29
55 °FClear.5 mph67%29.95 "Hg10 mi
10:50 PM57 °FClear.2 mph63%29.95 "Hg10 mi
10:20 PM57 °FSunny.3 mph63%29.95 "Hg10 mi
9:50 PM59 °FPassing clouds.5 mph59%29.95 "HgN/A
9:20 PM61 °FSunny.8 mph52%29.95 "Hg10 mi
8:50 PM63 °FSunny.13 mph49%29.92 "Hg10 mi
8:20 PM63 °FPassing clouds.14 mph49%29.92 "HgN/A
7:50 PM63 °FPassing clouds.12 mph49%29.92 "HgN/A
7:20 PM64 °FPassing clouds.15 mph43%29.89 "HgN/A
6:50 PM64 °FPassing clouds.17 mph43%29.89 "HgN/A
6:20 PM66 °FPassing clouds.16 mph40%29.89 "HgN/A
5:50 PM66 °FPassing clouds.14 mph46%29.89 "HgN/A
5:20 PM64 °FPassing clouds.10 mph49%29.89 "HgN/A
4:50 PM64 °FPassing clouds.13 mph49%29.89 "HgN/A
4:20 PM63 °FPassing clouds.15 mph49%29.86 "HgN/A
3:50 PM63 °FPassing clouds.18 mph45%29.86 "HgN/A
3:20 PM64 °FPassing clouds.17 mph43%29.86 "HgN/A
2:50 PM66 °FPassing clouds.18 mph40%29.86 "HgN/A
2:20 PM63 °FScattered clouds.16 mph49%29.86 "HgN/A
1:50 PM64 °FPassing clouds.15 mph43%29.83 "HgN/A
1:20 PM63 °FPassing clouds.15 mph45%29.83 "HgN/A
12:50 PM63 °FScattered clouds.15 mph49%29.83 "HgN/A
12:20 PM61 °FScattered clouds.15 mph55%29.83 "HgN/A
11:50 AM59 °FScattered clouds.14 mph63%29.83 "HgN/A
11:20 AM59 °FScattered clouds.13 mph68%29.83 "HgN/A
10:50 AM55 °FScattered clouds.12 mph82%29.83 "HgN/A
10:20 AM54 °FScattered clouds.8 mph94%29.83 "HgN/A
9:50 AM52 °FPartly sunny.8 mph94%29.83 "HgN/A
9:20 AM52 °FLight rain. Partly sunny.7 mph100%29.83 "HgN/A
8:50 AM52 °FSprinkles. Partly sunny.7 mph100%29.83 "Hg4 mi
8:20 AM52 °FSprinkles. Broken clouds.7 mph100%29.83 "Hg3 mi
7:50 AM52 °FSprinkles. Broken clouds.6 mph94%29.83 "HgN/A
7:20 AM52 °FBroken clouds.8 mph94%29.83 "HgN/A
6:50 AM54 °FSprinkles. Partly cloudy.8 mph88%29.83 "HgN/A
6:20 AM54 °FPartly cloudy.7 mph88%29.83 "HgN/A
5:50 AM54 °FPartly cloudy.8 mph82%29.83 "HgN/A
4:50 AM54 °FPartly cloudy.8 mph88%29.83 "HgN/A
4:20 AM54 °FCool.9 mph88%29.86 "HgN/A
3:50 AM54 °FCool.10 mph88%29.86 "HgN/A
3:20 AM54 °FCool.10 mph82%29.86 "HgN/A
2:50 AM54 °FCool.10 mph82%29.86 "HgN/A
2:20 AM54 °FPassing clouds.12 mph77%29.86 "HgN/A
1:50 AM54 °FPassing clouds.8 mph82%29.86 "HgN/A
1:20 AM55 °FCool.9 mph77%29.86 "HgN/A
Weather by CustomWeather, © 2015

See weather overviewHow to use our weather pages